Date,TemperatureHighF,TemperatureAvgF,TemperatureLowF,DewpointHighF,DewpointAvgF,DewpointLowF,HumidityHigh,HumidityAvg,HumidityLow,PressureMaxIn,PressureMinIn,WindSpeedMaxMPH,WindSpeedAvgMPH,GustSpeedMaxMPH,PrecipitationSumIn
2013-1-1,23,14,0,18,9,-8,85,79,70,30.23,29.96,0,-999,0,0.00
2013-1-2,30,21,9,25,15,1,86,76,67,30.22,29.90,0,-999,0,0.00
2013-1-3,25,14,1,16,7,-6,79,72,65,30.30,30.02,0,-999,0,0.00
2013-1-4,34,21,9,21,12,1,85,66,58,30.12,30.01,0,-999,0,0.00
2013-1-5,21,12,3,14,5,-2,85,73,62,30.14,29.91,0,-999,0,0.00
2013-1-6,28,14,7,19,7,0,85,74,67,30.21,29.80,0,-999,0,0.00
2013-1-7,36,30,21,23,20,16,79,65,55,29.96,29.79,0,-999,0,0.00
2013-1-8,37,27,16,27,20,10,80,74,64,29.96,29.71,0,-999,0,0.00
2013-1-9,36,30,25,27,21,16,80,69,59,30.28,29.94,0,-999,0,0.00
2013-1-10,39,36,34,30,28,23,86,69,51,30.11,29.58,0,-999,0,0.00
2013-1-11,34,31,16,34,28,9,100,90,78,29.59,29.40,0,-999,0,0.00
2013-1-12,16,7,3,10,-1,-6,78,69,60,30.13,29.52,0,-999,0,0.00
2013-1-13,12,5,0,3,-4,-9,72,66,59,30.24,30.11,0,-999,0,0.00
2013-1-14,12,5,-4,3,-4,-11,72,68,60,30.36,30.21,0,-999,0,0.00
2013-1-15,30,16,7,21,5,0,74,62,49,30.21,29.70,0,-999,0,0.00
2013-1-16,45,22,1,39,14,-11,86,71,50,30.27,29.67,0,-999,0,0.00
2013-1-17,25,13,0,16,4,-11,73,65,54,30.38,30.16,0,-999,0,0.00
2013-1-18,37,30,16,30,23,9,86,75,60,30.16,29.75,0,-999,0,0.00
2013-1-19,37,22,1,30,14,-9,86,70,56,30.33,29.72,0,-999,0,0.00
2013-1-20,9,3,-8,0,-8,-22,77,59,48,30.40,30.32,0,-999,0,0.00
2013-1-21,1,-5,-11,-11,-17,-24,64,55,48,30.36,30.27,0,-999,0,0.00
2013-1-22,9,0,-9,0,-10,-18,71,62,51,30.33,30.17,0,-999,0,0.00
2013-1-23,10,2,-9,3,-7,-24,78,64,47,30.59,30.14,0,-999,0,0.00
2013-1-24,12,0,-11,3,-10,-24,66,59,47,30.60,30.05,0,-999,0,0.00
2013-1-25,21,10,-2,16,-2,-9,79,61,50,30.29,29.98,0,-999,0,0.00
2013-1-26,19,7,-2,10,-1,-11,78,68,64,30.29,29.98,0,-999,0,0.00
2013-1-27,30,19,9,28,14,1,92,80,71,29.98,29.78,0,-999,0,0.00
2013-1-28,34,30,27,30,27,25,92,89,74,29.86,29.69,0,-999,0,0.00
2013-1-29,27,24,18,25,20,12,92,85,78,29.88,29.65,0,-999,0,0.00
2013-1-30,18,8,-6,12,1,-17,85,71,58,29.90,29.84,0,-999,0,0.00
2013-1-31,9,-9,-13,-2,-20,-24,63,58,52,30.30,29.90,0,-999,0,0.00
2013-2-1,9,-3,-15,3,-12,-26,78,65,57,30.30,29.98,0,-999,0,0.00
2013-2-2,19,8,0,14,2,-8,85,74,70,30.16,29.92,0,-999,0,0.00
2013-2-3,23,12,9,16,5,0,85,71,61,30.13,29.94,0,-999,0,0.00
2013-2-4,27,10,-4,21,3,-11,85,71,60,30.05,29.66,0,-999,0,0.00
2013-2-5,34,22,9,28,15,1,86,75,67,30.06,29.65,0,-999,0,0.00
2013-2-6,30,20,7,27,16,1,86,81,71,30.06,29.83,0,-999,0,0.00
2013-2-7,21,21,19,19,18,16,92,85,79,30.30,30.03,0,-999,0,0.00
2013-2-8,27,19,9,19,14,5,85,81,73,30.30,30.03,0,-999,0,0.00
2013-2-9,34,30,23,30,26,19,92,85,79,30.03,29.80,0,-999,0,0.00
2013-2-10,30,27,25,28,26,23,92,92,92,29.80,29.41,0,-999,0,0.00
2013-2-11,25,21,19,23,16,10,92,80,67,30.05,29.61,0,-999,0,0.00
2013-2-12,27,22,9,19,14,3,85,73,58,30.02,29.83,0,-999,0,0.00
2013-2-13,36,30,21,30,24,16,92,78,69,29.83,29.60,0,-999,0,0.00
2013-2-14,27,17,0,25,11,-8,92,77,65,30.26,29.75,0,-999,0,0.00
2013-2-15,14,6,-2,7,0,-9,84,74,70,30.36,30.25,0,-999,0,0.00
2013-2-16,18,9,-2,12,3,-8,85,76,70,30.26,29.99,0,-999,0,0.00
2013-2-17,34,22,10,28,18,7,92,81,74,30.00,29.53,0,-999,0,0.00
2013-2-18,36,15,1,30,9,-8,92,75,65,30.04,29.53,0,-999,0,0.00
2013-2-19,12,-6,-13,3,-15,-22,70,62,57,30.43,30.04,0,-999,0,0.00
2013-2-20,3,-8,-18,-6,-16,-29,70,65,56,30.45,30.32,0,-999,0,0.00
2013-2-21,16,6,-8,9,-2,-15,76,69,65,30.35,30.11,0,-999,0,0.00
2013-2-22,19,16,12,14,11,7,79,77,72,30.11,29.93,0,-999,0,0.00
2013-2-23,23,11,0,10,3,-8,84,71,53,29.93,29.87,0,-999,0,0.00
2013-2-24,19,8,-6,12,2,-11,85,75,70,30.08,29.93,0,-999,0,0.00
2013-2-25,27,20,10,21,16,7,92,84,73,30.11,30.04,0,-999,0,0.00
2013-2-26,25,20,18,21,18,14,92,89,85,30.05,30.00,0,-999,0,0.00
2013-2-27,27,21,12,21,16,9,92,81,73,30.14,30.01,0,-999,0,0.00
2013-2-28,25,22,18,19,17,10,85,81,72,30.27,30.14,0,-999,0,0.00
2013-3-1,23,13,3,16,8,-2,85,78,72,30.39,30.27,0,-999,0,0.00
2013-3-2,27,13,-2,19,8,-9,85,77,70,30.35,30.07,0,-999,0,0.00
2013-3-3,30,22,12,25,17,9,86,81,73,30.07,29.83,0,-999,0,0.00
2013-3-4,28,26,25,27,23,21,92,88,85,29.93,29.79,0,-999,0,0.00
2013-3-5,27,23,19,25,18,12,92,83,73,30.38,29.91,0,-999,0,0.00
2013-3-6,23,19,18,16,12,10,85,75,62,30.43,30.30,0,-999,0,0.00
2013-3-7,25,20,16,19,16,10,85,82,73,30.30,30.15,0,-999,0,0.00
2013-3-8,30,21,9,28,16,5,92,82,73,30.23,29.99,0,-999,0,0.00
2013-3-9,34,30,27,32,29,25,93,92,86,30.00,29.74,0,-999,0,0.00
2013-3-10,27,21,12,25,17,5,92,85,78,30.13,29.92,0,-999,0,0.00
2013-3-11,30,15,3,21,8,-2,78,73,67,30.06,29.85,0,-999,0,0.00
2013-3-12,30,22,18,25,17,12,85,78,73,30.30,29.88,0,-999,0,0.00
2013-3-13,27,16,3,21,10,-2,85,75,67,30.37,30.09,0,-999,0,0.00
2013-3-14,39,30,21,28,25,18,92,81,64,30.12,30.01,0,-999,0,0.00
2013-3-15,32,26,19,28,23,16,92,86,79,30.05,29.85,0,-999,0,0.00
2013-3-16,19,9,1,16,3,-6,85,74,66,30.28,30.00,0,-999,0,0.00
2013-3-17,30,15,3,27,9,-2,92,76,65,30.27,29.64,0,-999,0,0.00
2013-3-18,36,17,9,30,10,-2,92,72,60,30.00,29.52,0,-999,0,0.00
2013-3-19,16,9,1,7,-1,-9,78,63,48,30.33,30.00,0,-999,0,0.00
2013-3-20,18,8,1,3,-2,-8,77,64,52,30.35,30.17,0,-999,0,0.00
2013-3-21,19,6,-6,9,-2,-11,77,67,52,30.18,30.06,0,-999,0,0.00
2013-3-22,23,11,-2,14,3,-9,85,70,57,30.12,30.06,0,-999,0,0.00
2013-3-23,25,20,12,16,12,7,85,72,58,30.20,30.12,0,-999,0,0.00
2013-3-24,28,21,14,23,15,9,85,78,68,30.19,30.09,0,-999,0,0.00
2013-3-25,27,23,16,19,18,9,85,79,68,30.34,30.16,0,-999,0,0.00
2013-3-26,30,17,9,18,10,3,85,74,58,30.35,30.28,0,-999,0,0.00
2013-3-27,36,20,7,28,15,1,92,80,74,30.31,30.26,0,-999,0,0.00
2013-3-28,37,32,23,30,27,19,92,82,74,30.28,30.22,0,-999,0,0.00
2013-3-29,41,32,23,36,29,19,93,88,80,30.22,29.95,0,-999,0,0.00
2013-3-30,46,36,30,43,32,-100,93,87,75,29.99,29.90,0,-999,0,0.00
2013-3-31,34,29,21,32,22,14,93,74,58,30.22,29.91,0,-999,0,0.00
2013-4-1,30,22,14,18,13,9,85,68,54,30.34,30.22,0,-999,0,0.00
2013-4-2,34,25,16,19,16,10,85,69,50,30.36,30.28,0,-999,0,0.00
2013-4-3,54,36,21,43,28,16,85,72,53,30.34,29.94,0,-999,0,0.00
2013-4-4,48,34,27,34,27,21,80,74,57,30.26,30.02,0,-999,0,0.00
2013-4-5,37,30,21,30,25,18,86,79,69,30.26,29.75,0,-999,0,0.00
2013-4-6,43,36,34,36,32,28,93,84,75,29.87,29.60,0,-999,0,0.00
2013-4-7,39,35,30,37,31,27,93,85,74,29.94,29.75,0,-999,0,0.00
2013-4-8,39,34,27,37,32,19,100,95,79,30.15,29.74,0,-999,0,0.00
2013-4-9,36,23,18,27,16,9,85,73,67,30.24,30.11,0,-999,0,0.00
2013-4-10,36,31,25,28,21,18,86,66,47,30.25,29.96,0,-999,0,0.00
2013-4-11,32,29,27,30,27,25,92,90,86,29.98,29.75,0,-999,0,0.00
2013-4-12,30,28,27,27,25,23,92,85,74,29.93,29.79,0,-999,0,0.00
2013-4-13,36,29,25,25,23,19,92,78,64,29.94,29.89,0,-999,0,0.00
2013-4-14,34,30,28,32,28,25,93,91,80,29.90,29.39,0,-999,0,0.00
2013-4-15,36,34,30,32,27,25,93,77,69,30.05,29.37,0,-999,0,0.00
2013-4-16,36,30,25,27,24,19,86,76,69,30.35,30.05,0,-999,0,0.00
2013-4-17,36,32,30,30,29,27,92,88,80,30.36,30.07,0,-999,0,0.00
2013-4-18,32,30,28,30,28,21,92,89,74,30.08,29.81,0,-999,0,0.00
2013-4-19,34,29,25,23,20,16,74,67,54,30.10,29.77,0,-999,0,0.00
2013-4-20,36,27,16,28,18,9,92,70,55,30.25,30.09,0,-999,0,0.00
2013-4-21,43,36,30,37,32,27,93,85,74,30.21,30.00,0,-999,0,0.00
2013-4-22,32,29,27,28,25,19,92,84,68,30.32,30.20,0,-999,0,0.00
2013-4-23,37,28,16,27,20,10,86,71,60,30.32,30.09,0,-999,0,0.00
2013-4-24,43,36,28,36,27,19,86,69,59,30.11,29.95,0,-999,0,0.00
2013-4-25,50,38,25,39,27,19,81,66,52,30.19,29.95,0,-999,0,0.00
2013-4-26,68,52,32,43,35,28,93,59,24,30.16,29.89,0,-999,0,0.00
2013-4-27,75,58,39,45,37,30,75,49,23,30.15,29.82,0,-999,0,0.00
2013-4-28,72,60,48,45,43,28,66,53,30,29.89,29.70,0,-999,0,0.00
2013-4-29,72,54,34,46,34,27,86,51,19,29.92,29.44,0,-999,0,0.00
2013-4-30,64,57,45,50,37,27,81,50,25,30.07,29.32,0,-999,0,0.00
2013-5-1,45,38,34,30,24,18,69,56,41,30.59,30.06,0,-999,0,0.00
2013-5-2,46,36,27,27,25,21,86,64,39,30.68,30.52,0,-999,0,0.00
2013-5-3,52,38,21,27,22,18,86,56,31,30.52,30.21,0,-999,0,0.00
2013-5-4,43,39,37,37,31,21,93,74,41,30.25,30.20,0,-999,0,0.00
2013-5-5,46,42,37,41,38,36,93,86,75,30.24,30.17,0,-999,0,0.00
2013-5-6,68,52,43,48,42,39,87,71,42,30.18,30.06,0,-999,0,0.00
2013-5-7,75,59,39,52,43,37,93,60,27,30.08,29.96,0,-999,0,0.00
2013-5-8,63,57,52,55,52,46,93,83,63,30.07,29.98,0,-999,0,0.00
2013-5-9,68,56,46,54,46,37,93,71,48,30.19,30.05,0,-999,0,0.00
2013-5-10,72,54,39,48,33,19,86,49,19,30.20,29.94,0,-999,0,0.00
2013-5-11,54,46,36,30,21,12,64,40,18,30.30,30.12,0,-999,0,0.00
2013-5-12,63,47,28,27,18,12,63,35,13,30.28,30.09,0,-999,0,0.00
2013-5-13,91,66,46,46,35,23,49,33,15,30.09,29.70,0,-999,0,0.00
2013-5-14,93,72,54,48,41,25,66,38,10,29.87,29.57,0,-999,0,0.00
2013-5-15,81,65,46,48,41,36,76,45,19,29.96,29.86,0,-999,0,0.00
2013-5-16,82,67,48,50,29,-100,66,40,19,29.94,29.83,0,-999,0,0.00
2013-5-17,72,64,54,61,50,-100,82,65,39,29.94,29.87,0,-999,0,0.00
2013-5-18,84,70,61,66,59,55,100,72,37,29.92,29.73,0,-999,0,0.00
2013-5-19,77,67,61,64,62,59,93,81,60,29.75,29.59,0,-999,0,0.00
2013-5-20,66,62,59,63,58,55,100,86,68,29.59,29.48,0,-999,0,0.00
2013-5-21,59,54,48,55,52,46,93,92,87,29.82,29.52,0,-999,0,0.00
2013-5-22,55,50,46,50,46,45,93,87,71,30.10,29.81,0,-999,0,0.00
2013-5-23,64,54,43,45,42,37,93,67,39,30.33,30.10,0,-999,0,0.00
2013-5-24,66,54,43,52,43,36,82,68,42,30.32,30.12,0,-999,0,0.00
2013-5-25,61,55,52,52,50,48,93,81,71,30.16,30.08,0,-999,0,0.00
2013-5-26,55,52,50,50,48,46,93,85,76,30.17,30.02,0,-999,0,0.00
2013-5-27,61,56,52,55,53,50,100,88,77,30.05,29.82,0,-999,0,0.00
2013-5-28,72,60,55,59,55,52,93,83,60,29.85,29.71,0,-999,0,0.00
2013-5-29,75,63,54,72,60,52,100,89,73,29.80,29.57,0,-999,0,0.00
2013-5-30,77,69,63,64,60,57,93,76,50,29.58,29.45,0,-999,0,0.00
2013-5-31,66,61,55,61,54,48,88,76,63,29.54,29.40,0,-999,0,0.00
2013-6-1,59,53,48,55,48,-100,93,85,76,30.09,29.54,0,-999,0,0.00
2013-6-2,66,55,43,46,42,39,93,65,39,30.16,30.05,0,-999,0,0.00
2013-6-3,70,57,43,46,42,39,93,59,37,30.07,29.91,0,-999,0,0.00
2013-6-4,75,63,55,61,52,43,87,67,43,30.01,29.91,0,-999,0,0.00
2013-6-5,66,59,54,54,50,46,93,70,52,30.06,29.99,0,-999,0,0.00
2013-6-6,61,56,54,54,50,48,93,80,63,30.09,30.04,0,-999,0,0.00
2013-6-7,70,58,45,52,47,43,93,69,40,30.09,29.91,0,-999,0,0.00
2013-6-8,64,59,55,55,51,46,93,78,59,29.92,29.85,0,-999,0,0.00
2013-6-9,61,58,54,59,56,52,100,92,82,29.90,29.78,0,-999,0,0.00
2013-6-10,75,62,48,63,56,46,100,81,53,29.92,29.82,0,-999,0,0.00
2013-6-11,77,67,61,64,57,46,93,73,38,29.98,29.85,0,-999,0,0.00
2013-6-12,72,64,57,61,55,50,82,72,49,30.09,29.83,0,-999,0,0.00
2013-6-13,77,66,52,55,52,48,87,64,38,30.18,30.06,0,-999,0,0.00
2013-6-14,84,72,61,66,60,55,82,67,48,30.09,29.81,0,-999,0,0.00
2013-6-15,81,71,63,64,53,41,93,58,24,30.01,29.85,0,-999,0,0.00
2013-6-16,84,72,55,59,51,45,76,50,26,29.99,29.91,0,-999,0,0.00
2013-6-17,79,70,61,57,54,52,77,57,39,30.05,29.96,0,-999,0,0.00
2013-6-18,79,68,55,57,55,52,93,65,39,30.13,30.01,0,-999,0,0.00
2013-6-19,88,75,59,63,56,48,87,54,25,30.04,29.89,0,-999,0,0.00
2013-6-20,88,74,66,66,64,63,93,73,45,29.98,29.88,0,-999,0,0.00
2013-6-22,79,75,70,70,66,64,88,76,65,29.97,29.82,0,-999,0,0.00
2013-6-23,79,71,64,70,63,59,94,76,50,29.91,29.66,0,-999,0,0.00
2013-6-24,79,71,57,72,64,55,93,81,69,29.93,29.80,0,-999,0,0.00
2013-6-25,90,76,64,77,69,63,100,82,52,29.82,29.70,0,-999,0,0.00
2013-6-26,88,74,66,72,66,63,93,77,45,29.90,29.69,0,-999,0,0.00
2013-6-27,84,74,66,66,61,52,88,66,37,29.96,29.87,0,-999,0,0.00
2013-6-28,82,74,64,59,56,54,72,55,39,29.98,29.94,0,-999,0,0.00
2013-6-29,81,71,63,61,57,52,88,63,36,30.07,29.94,0,-999,0,0.00
2013-6-30,79,70,55,57,52,45,87,57,29,30.20,30.07,0,-999,0,0.00
2013-7-1,84,72,57,61,54,48,82,55,28,30.27,30.20,0,-999,0,0.00
2013-7-2,86,74,57,61,55,48,87,55,28,30.20,30.10,0,-999,0,0.00
2013-7-3,84,74,57,63,55,48,93,55,30,30.10,29.96,0,-999,0,0.00
2013-7-4,90,77,61,63,57,52,82,53,31,29.96,29.80,0,-999,0,0.00
2013-7-5,90,80,70,66,60,55,73,52,31,29.84,29.80,0,-999,0,0.00
2013-7-6,84,76,72,72,66,64,94,73,54,29.85,29.80,0,-999,0,0.00
2013-7-7,90,78,66,73,69,61,100,75,52,30.00,29.84,0,-999,0,0.00
2013-7-8,88,73,57,68,62,55,93,70,40,30.05,29.95,0,-999,0,0.00
2013-7-9,82,74,64,72,67,61,93,77,57,30.07,29.81,0,-999,0,0.00
2013-7-10,79,68,55,61,57,54,93,69,41,30.16,30.06,0,-999,0,0.00
2013-7-14,77,72,70,72,68,64,100,88,78,30.21,30.01,0,-999,0,0.00
2013-7-15,84,75,68,72,67,64,94,76,51,30.22,30.14,0,-999,0,0.00
2013-7-16,88,78,66,70,67,63,93,71,43,30.23,30.15,0,-999,0,0.00
2013-7-17,90,79,66,72,68,64,93,69,46,30.25,30.12,0,-999,0,0.00
2013-7-18,91,82,73,72,70,66,88,67,52,30.12,29.80,0,-999,0,0.00
2013-7-19,82,75,68,72,63,57,83,66,44,30.00,29.84,0,-999,0,0.00
2013-7-20,79,68,61,64,61,57,93,78,54,30.04,29.96,0,-999,0,0.00
2013-7-21,82,72,63,70,64,61,93,76,51,29.98,29.75,0,-999,0,0.00
2013-7-22,79,72,57,68,62,54,88,73,53,29.98,29.73,0,-999,0,0.00
2013-7-23,75,64,54,57,54,52,93,72,46,30.09,29.98,0,-999,0,0.00
2013-7-24,81,69,57,63,57,54,93,68,44,30.12,29.99,0,-999,0,0.00
2013-7-25,81,71,61,64,61,54,93,72,50,30.05,29.97,0,-999,0,0.00
2013-7-26,70,61,52,55,50,43,87,68,40,30.19,30.04,0,-999,0,0.00
2013-7-27,70,58,46,48,45,41,93,66,35,30.20,30.06,0,-999,0,0.00
2013-7-28,73,60,45,52,46,39,87,63,35,30.11,30.07,0,-999,0,0.00
2013-7-29,73,60,46,61,52,43,93,76,46,30.12,30.08,0,-999,0,0.00
2013-7-30,77,67,61,64,61,57,93,80,61,30.13,30.06,0,-999,0,0.00
2013-7-31,79,67,55,64,56,52,100,72,39,30.17,30.09,0,-999,0,0.00
2013-8-1,81,65,52,61,53,48,93,68,39,30.11,29.95,0,-999,0,0.00
2013-8-2,75,64,54,61,54,48,93,72,38,30.13,29.96,0,-999,0,0.00
2013-8-3,79,63,50,55,50,46,87,66,36,30.26,30.13,0,-999,0,0.00
2013-8-4,75,62,48,61,53,46,93,75,43,30.28,29.99,0,-999,0,0.00
2013-8-5,77,69,63,66,63,59,100,84,61,30.03,29.88,0,-999,0,0.00
2013-8-6,82,69,59,66,61,57,100,78,45,29.92,29.75,0,-999,0,0.00
2013-8-7,73,64,54,61,55,50,93,72,43,30.07,29.92,0,-999,0,0.00
2013-8-8,75,64,57,61,58,54,93,79,56,30.08,30.03,0,-999,0,0.00
2013-8-9,73,62,54,54,52,48,93,71,43,30.20,30.08,0,-999,0,0.00
2013-8-10,73,62,46,63,54,45,93,78,53,30.24,30.11,0,-999,0,0.00
2013-8-11,79,65,55,64,59,55,100,82,50,30.12,30.07,0,-999,0,0.00
2013-8-12,79,66,52,59,55,50,93,71,39,30.15,30.11,0,-999,0,0.00
2013-8-13,73,61,48,55,50,46,93,70,38,30.26,30.16,0,-999,0,0.00
2013-8-14,77,62,45,57,51,43,93,71,41,30.22,30.12,0,-999,0,0.00
2013-8-15,77,64,50,61,52,-100,100,75,41,30.17,30.11,0,-999,0,0.00
2013-8-16,75,65,48,61,56,46,100,74,53,30.20,30.16,0,-999,0,0.00
2013-8-17,82,67,54,64,59,52,100,78,54,30.18,30.07,0,-999,0,0.00
2013-8-18,82,71,61,66,61,57,88,71,57,30.09,29.97,0,-999,0,0.00
2013-8-19,86,76,66,72,65,-100,88,74,58,30.01,29.88,0,-999,0,0.00
2013-8-21,88,76,66,73,66,57,100,74,43,30.07,29.83,0,-999,0,0.00
2013-8-22,81,69,57,57,54,48,87,63,32,30.22,30.07,0,-999,0,0.00
2013-8-23,84,69,52,72,62,48,93,78,61,30.17,29.98,0,-999,0,0.00
2013-8-24,93,82,72,75,71,66,94,72,46,29.99,29.85,0,-999,0,0.00
2013-8-25,93,85,77,75,73,70,88,68,52,29.98,29.90,0,-999,0,0.00
2013-8-26,93,84,73,75,73,70,88,69,52,29.98,29.84,0,-999,0,0.00
2013-8-27,91,78,72,79,73,70,100,87,55,29.92,29.83,0,-999,0,0.00
2013-8-28,88,81,73,77,74,72,94,82,66,30.02,29.99,0,-999,0,0.00
2013-8-29,93,81,70,73,72,70,100,76,49,30.00,29.87,0,-999,0,0.00
2013-8-30,86,73,66,70,66,63,100,79,48,30.03,29.92,0,-999,0,0.00
2013-8-31,93,75,59,72,65,57,100,75,40,29.96,29.76,0,-999,0,0.00
2013-9-1,70,63,50,61,56,48,93,78,64,30.10,29.89,0,-999,0,0.00
2013-9-2,73,59,45,57,48,43,100,73,38,30.17,30.07,0,-999,0,0.00
2013-9-3,81,65,46,64,57,43,93,76,50,30.08,30.01,0,-999,0,0.00
2013-9-4,84,69,55,70,62,55,100,80,58,30.18,30.05,0,-999,0,0.00
2013-9-5,88,72,61,68,63,57,93,75,48,30.20,30.08,0,-999,0,0.00
2013-9-6,91,77,64,72,65,63,93,70,43,30.08,29.89,0,-999,0,0.00
2013-9-7,91,76,64,72,68,63,100,77,46,30.05,29.93,0,-999,0,0.00
2013-9-8,72,68,64,68,64,61,100,88,82,30.08,29.88,0,-999,0,0.00
2013-9-9,86,73,64,73,66,63,100,82,51,29.88,29.70,0,-999,0,0.00
2013-9-10,81,72,61,64,59,55,93,68,41,30.04,29.86,0,-999,0,0.00
2013-9-11,86,72,55,59,51,43,87,52,25,30.20,30.04,0,-999,0,0.00
2013-9-12,75,61,46,52,47,43,87,62,38,30.31,30.20,0,-999,0,0.00
2013-9-13,77,58,41,50,44,37,93,65,29,30.28,30.06,0,-999,0,0.00
2013-9-14,64,56,48,59,52,45,93,87,76,30.06,29.83,0,-999,0,0.00
2013-9-15,68,58,46,55,53,43,100,83,52,30.35,29.92,0,-999,0,0.00
2013-9-16,70,53,37,52,44,36,100,74,40,30.39,30.19,0,-999,0,0.00
2013-9-17,66,58,48,57,53,46,93,84,68,30.18,29.89,0,-999,0,0.00
2013-9-18,75,63,59,70,61,57,100,93,78,29.88,29.65,0,-999,0,0.00
2013-9-19,75,67,55,70,57,46,93,74,35,29.94,29.64,0,-999,0,0.00
2013-9-20,63,55,41,52,45,37,87,71,41,30.03,29.93,0,-999,0,0.00
2013-9-21,68,52,36,46,42,32,93,70,37,30.05,29.90,0,-999,0,0.00
2013-9-22,86,63,48,55,49,45,87,63,28,29.91,29.71,0,-999,0,0.00
2013-9-23,81,66,55,52,50,46,87,60,31,29.87,29.74,0,-999,0,0.00
2013-9-24,75,61,54,55,52,48,87,72,43,29.98,29.87,0,-999,0,0.00
2013-9-25,79,63,46,57,50,45,100,66,31,29.95,29.78,0,-999,0,0.00
2013-9-26,86,69,59,59,55,52,87,64,35,29.82,29.73,0,-999,0,0.00
2013-9-27,82,66,54,64,58,50,100,77,51,29.85,29.72,0,-999,0,0.00
2013-9-28,64,55,48,55,46,37,93,75,36,29.94,29.70,0,-999,0,0.00
2013-9-29,79,61,45,46,43,39,87,56,24,29.94,29.66,0,-999,0,0.00
2013-9-30,82,69,55,52,47,45,67,46,28,29.66,29.56,0,-999,0,0.00
2013-10-1,72,54,46,37,35,28,70,53,19,30.02,29.96,0,-999,0,0.00
2013-10-2,70,51,39,52,41,36,93,71,28,30.03,29.86,0,-999,0,0.00
2013-10-3,54,50,45,52,49,43,100,95,93,30.04,29.92,0,-999,0,0.00
2013-10-4,54,53,52,52,50,48,100,92,87,30.03,29.84,0,-999,0,0.00
2013-10-5,54,47,39,54,41,36,100,81,57,29.84,29.72,0,-999,0,0.00
2013-10-6,59,49,45,46,41,32,93,77,35,29.95,29.81,0,-999,0,0.00
2013-10-7,72,56,41,45,40,36,86,58,28,30.02,29.90,0,-999,0,0.00
2013-10-8,77,62,46,46,43,39,87,54,25,29.90,29.70,0,-999,0,0.00
2013-10-9,73,63,50,52,47,43,81,58,40,30.00,29.83,0,-999,0,0.00
2013-10-10,81,65,50,54,50,46,87,63,36,29.97,29.75,0,-999,0,0.00
2013-10-11,70,60,52,57,51,41,87,72,43,29.76,29.45,0,-999,0,0.00
2013-10-12,57,51,43,41,36,28,70,57,33,30.25,29.69,0,-999,0,0.00
2013-10-13,57,45,32,39,32,28,86,63,37,30.43,30.25,0,-999,0,0.00
2013-10-14,48,45,43,45,40,34,93,81,61,30.35,29.84,0,-999,0,0.00
2013-10-20,45,38,34,43,34,25,93,82,69,30.01,29.62,0,-999,0,0.00
2013-10-21,43,35,25,25,22,19,79,61,38,30.03,29.98,0,-999,0,0.00
2013-10-22,39,32,25,28,25,21,86,75,55,30.10,29.99,0,-999,0,0.00
2013-10-23,39,34,30,28,26,21,92,71,48,30.19,30.06,0,-999,0,0.00
2013-10-24,45,35,25,34,28,19,92,75,60,30.34,30.19,0,-999,0,0.00
2013-10-25,63,42,21,45,32,18,86,67,44,30.33,29.85,0,-999,0,0.00
2013-10-26,48,39,27,34,26,21,79,59,42,30.22,29.96,0,-999,0,0.00
2013-10-27,57,41,27,37,28,21,86,60,43,30.21,29.80,0,-999,0,0.00
2013-10-28,41,33,27,27,23,19,80,66,44,30.46,30.21,0,-999,0,0.00
2013-10-29,34,32,28,30,28,19,92,86,55,30.43,30.11,0,-999,0,0.00
2013-10-30,37,36,34,37,34,30,100,91,86,30.11,29.77,0,-999,0,0.00
2013-10-31,43,39,36,37,35,32,93,85,75,29.76,29.49,0,-999,0,0.00
2013-11-1,48,41,36,39,35,30,86,79,70,29.97,29.54,0,-999,0,0.00
2013-11-2,54,42,32,37,33,28,86,71,40,30.10,29.98,0,-999,0,0.00
2013-11-3,57,45,34,34,31,28,86,61,35,30.02,29.70,0,-999,0,0.00
2013-11-4,46,40,30,36,30,25,86,68,45,30.15,29.72,0,-999,0,0.00
2013-11-5,37,33,27,27,22,18,86,66,44,30.27,30.13,0,-999,0,0.00
2013-11-6,45,34,23,27,23,18,86,64,39,30.18,30.11,0,-999,0,0.00
2013-11-7,48,33,27,27,22,19,86,66,38,30.29,30.16,0,-999,0,0.00
2013-11-8,48,38,25,39,29,19,86,71,52,30.15,29.60,0,-999,0,0.00
2013-11-9,45,41,34,39,29,21,86,63,45,30.32,29.71,0,-999,0,0.00
2013-11-10,39,30,21,28,23,14,86,73,59,30.33,30.12,0,-999,0,0.00
2013-11-11,25,16,7,14,5,0,71,60,48,30.76,30.26,0,-999,0,0.00
2013-11-12,37,21,5,14,5,-2,78,52,23,30.76,30.33,0,-999,0,0.00
2013-11-13,61,42,28,34,28,16,74,58,35,30.30,29.90,0,-999,0,0.00
2013-11-14,43,37,30,32,29,25,80,73,60,29.90,29.82,0,-999,0,0.00
2013-11-15,55,49,45,36,36,34,70,59,47,29.61,29.54,0,-999,0,0.00
2013-11-17,43,37,32,37,30,25,81,75,69,29.94,29.56,0,-999,0,0.00
2013-11-19,55,54,54,28,28,28,37,37,35,29.76,29.74,0,-999,0,0.00
2013-11-20,30,30,30,25,25,25,80,80,80,30.00,30.00,0,-999,0,0.00
2013-11-21,19,16,12,7,4,1,61,59,56,30.61,30.51,0,-999,0,0.00
2013-11-22,25,18,12,12,8,3,73,65,53,30.68,30.56,0,-999,0,0.00
2013-11-23,7,4,3,-2,-4,-6,77,70,65,30.77,30.74,0,-999,0,0.00
2013-11-24,41,31,14,28,18,3,67,58,40,30.32,29.89,0,-999,0,0.00
2013-11-25,37,37,37,28,28,28,69,69,69,29.92,29.91,0,-999,0,0.00
2013-11-26,25,17,10,7,3,1,72,56,38,30.42,30.29,0,-999,0,0.00
2013-11-27,27,17,5,9,5,-2,77,59,42,30.42,29.98,0,-999,0,0.00
2013-11-28,21,21,19,9,9,9,62,58,57,30.39,30.38,0,-999,0,0.00
2013-11-29,37,29,21,19,17,14,73,61,47,30.23,30.04,0,-999,0,0.00
2013-11-30,34,30,25,23,20,18,79,68,59,30.21,30.12,0,-999,0,0.00
2013-12-1,30,27,25,21,19,18,73,70,68,30.21,29.87,0,-999,0,0.00
2013-12-2,30,29,28,23,22,21,74,74,74,29.81,29.76,0,-999,0,0.00
2013-12-4,27,17,7,25,12,0,92,80,66,29.83,29.65,0,-999,0,0.00
2013-12-5,7,2,-6,0,-8,-17,71,63,58,30.32,29.83,0,-999,0,0.00
2013-12-6,0,-6,-11,-11,-17,-22,63,59,53,30.60,30.33,0,-999,0,0.00
2013-12-7,0,-9,-17,-13,-20,-27,69,57,49,30.62,30.44,0,-999,0,0.00
2013-12-8,9,2,-8,1,-5,-17,78,71,63,30.44,30.04,0,-999,0,0.00
2013-12-9,19,-1,-8,10,-11,-18,72,61,53,30.11,29.73,0,-999,0,0.00
2013-12-10,19,8,-2,10,-1,-11,78,64,52,30.34,29.73,0,-999,0,0.00
2013-12-11,16,-2,-17,5,-13,-26,66,59,49,30.50,30.17,0,-999,0,0.00
2013-12-12,25,15,9,14,7,1,78,69,56,30.25,30.11,0,-999,0,0.00
2013-12-13,12,10,7,7,4,1,78,75,71,30.19,30.10,0,-999,0,0.00
2013-12-17,25,18,10,16,11,5,85,72,67,30.12,29.99,0,-999,0,0.00
2013-12-18,41,32,14,28,23,9,79,69,56,29.95,29.65,0,-999,0,0.00
2013-12-19,16,4,1,9,-4,-8,72,69,65,30.11,29.94,0,-999,0,0.00
2013-12-20,10,2,-6,1,-4,-11,77,72,66,30.09,29.84,0,-999,0,0.00
2013-12-21,3,-2,-8,-2,-8,-15,77,71,69,30.02,29.82,0,-999,0,0.00
2013-12-22,0,-2,-8,-9,-12,-18,64,63,58,30.37,30.17,0,-999,0,0.00
2013-12-23,-4,-10,-18,-18,-23,-27,62,53,44,30.54,30.37,0,-999,0,0.00
2013-12-24,21,4,-18,16,-3,-27,85,69,53,30.39,30.05,0,-999,0,0.00
2013-12-25,32,26,21,27,20,12,86,78,67,30.17,30.02,0,-999,0,0.00
2013-12-27,39,33,21,32,27,18,92,77,64,30.14,29.90,0,-999,0,0.00
2013-12-28,37,21,-6,30,15,-17,92,77,58,30.27,29.71,0,-999,0,0.00
2013-12-29,-2,-8,-11,-17,-20,-26,63,53,44,30.42,30.18,0,-999,0,0.00
2013-12-30,7,-1,-11,-2,-9,-18,71,66,58,30.24,30.07,0,-999,0,0.00
2013-12-31,0,-8,-17,-9,-18,-27,70,62,56,30.35,30.19,0,-999,0,0.00
2014-1-1,-2,-6,-13,-11,-15,-22,70,63,53,30.44,30.33,0,-999,0,0.00
2014-1-2,-2,-13,-20,-9,-21,-29,76,64,56,30.46,30.36,0,-999,0,0.00